STARLINK-1963 (47564 NORAD) Tracking and Keplerian Element Data

This shows tracking and keplerian element data for the satellite.

Feedback or suggestion? Click here.




ElementValue
Catalog47564
NameSTARLINK-1963
Epoch Orbit1175
Epoch Day106.25002315
Epoch Year2021
RAAN136.3481
Inclination53.0514
Eccentricity0.0004001
Argument of Perigee13.4709
Mean Anonmoly146.6327
Mean Motion15.62822156
Decay Rate-0.00110398
L11 47564U 21009S 21106.25002315 -.00110398 00000-0 -12124-2 0 9992
L22 47564 53.0514 136.3481 0004001 13.4709 146.6327 15.62822156 11752

Live tracking and technical data element details for STARLINK-1963 (NORAD 47564). STARLINK-1963 can be tracked NOW for your location showing map with azimuth and elevation plus other details from your city location.

Track the satellite on the map from your city or location and see movement details for azimuth, elevation, latitude, longitude, range, height, and movement on the map or in text.







IsCatalogInMostPopularTable: catalog: 47564, numindb: 15
Update: records affected: 1



GetName: 47564 STARLINK-1963

Hit Count: updated at: Fri, 16 Apr 2021 11:14:11 GMT